Location: Newark
(13.6797°N, 8.5297°E)
Time: 18:31:05
(UTC+00:00)

S-56A Canister/Altair - All Passes

Search period start: 29 January 2020 00:00
Search period end: 08 February 2020 00:00
Orbit: 634 x 2498 km, 38.9° (Epoch: 28 January)

Date Brightness Start Highest point End Pass type
(mag) Time Alt. Az. Time Alt. Az. Time Alt. Az.
29 Jan - 01:21:00 10° NW 01:25:32 73° NE 01:31:21 10° SE night (unlit)
29 Jan - 03:26:30 10° WSW 03:29:52 16° SW 03:33:54 10° S visible
29 Jan - 12:12:21 10° SSE 12:16:25 12° SE 12:20:16 10° SE daylight
29 Jan - 14:10:57 10° SSW 14:23:52 44° SE 14:33:17 10° ENE daylight
29 Jan - 16:17:33 10° WSW 16:29:36 61° NW 16:37:33 10° NE daylight
29 Jan - 18:29:58 10° WNW 18:34:43 15° NNW 18:38:39 10° N visible
30 Jan - 00:48:37 10° NW 00:52:59 55° NE 00:58:15 10° ESE night (unlit)
30 Jan - 02:53:28 10° WSW 02:57:02 18° SW 03:01:22 10° S visible
30 Jan - 13:37:34 10° SSW 13:50:27 39° SE 14:00:15 10° ENE daylight
30 Jan - 15:43:32 10° WSW 15:56:29 71° NW 16:05:06 10° NE daylight
30 Jan - 17:55:10 10° WNW 18:01:43 20° NNW 18:06:49 10° NNE visible
31 Jan - 00:16:16 10° NW 00:20:27 42° NE 00:25:11 10° ESE night (unlit)
31 Jan - 02:20:34 10° W 02:24:16 21° SW 02:28:49 10° SSE visible
31 Jan - 13:04:18 10° SSW 13:16:59 35° SE 13:27:03 10° E daylight
31 Jan - 15:09:37 10° SW 15:23:18 81° NW 15:32:33 10° NE daylight
31 Jan - 17:20:31 10° W 17:28:40 24° NW 17:34:46 10° NNE daylight
31 Jan - 23:43:54 10° NNW 23:47:54 32° NE 23:52:07 10° E night (unlit)
01 Feb - 01:47:44 10° W 01:51:35 25° SW 01:56:13 10° SSE night (unlit)
01 Feb - 12:31:09 10° SSW 12:43:26 31° SE 12:53:40 10° E daylight
01 Feb - 14:35:45 10° SW 14:50:00 89° SSE 14:59:56 10° NE daylight
01 Feb - 16:45:57 10° W 16:55:35 29° NW 17:02:36 10° NNE daylight
01 Feb - 23:11:32 10° NNW 23:15:18 25° NNE 23:19:03 10° E night (unlit)
02 Feb - 01:14:57 10° WNW 01:18:56 31° SW 01:23:38 10° SSE night (unlit)
02 Feb - 11:58:09 10° S 12:09:52 28° SE 12:20:03 10° E daylight
02 Feb - 14:01:59 10° SW 14:16:38 80° SE 14:27:11 10° NE daylight
02 Feb - 16:11:28 10° W 16:22:27 35° NW 16:30:19 10° NNE daylight
02 Feb - 22:39:08 10° NNW 22:42:39 20° NNE 22:45:59 10° E night (unlit)
03 Feb - 00:42:14 10° WNW 00:46:22 39° SW 00:51:03 10° SSE night (unlit)
03 Feb - 11:25:20 10° S 11:36:17 24° SE 11:46:11 10° E daylight
03 Feb - 13:28:19 10° SW 13:43:11 72° SE 13:54:21 10° ENE daylight
03 Feb - 15:37:03 10° WSW 15:49:14 41° NW 15:57:55 10° NNE daylight
03 Feb - 17:52:05 10° NW 17:55:46 13° NNW 17:58:59 10° N visible
03 Feb - 22:06:42 10° NNW 22:09:55 17° NNE 22:12:53 10° ENE night (unlit)
04 Feb - 00:09:31 10° WNW 00:13:50 51° SW 00:18:28 10° SE night (unlit)
04 Feb - 10:52:45 10° S 11:02:40 21° SE 11:12:00 10° E daylight
04 Feb - 12:54:46 10° SW 13:09:41 65° SE 13:21:23 10° ENE daylight
04 Feb - 15:02:45 10° WSW 15:15:57 48° NW 15:25:27 10° NE daylight
04 Feb - 17:16:49 10° WNW 17:22:32 16° NNW 17:27:15 10° N daylight
04 Feb - 21:34:11 10° N 21:37:08 15° NNE 21:39:48 10° ENE night (unlit)
04 Feb - 23:36:49 10° WNW 23:41:20 69° SW 23:45:53 10° SE night (unlit)
05 Feb - 10:20:30 10° S 10:29:03 17° SE 10:37:22 10° ESE daylight
05 Feb - 12:21:21 10° SSW 12:36:06 58° SE 12:48:17 10° ENE daylight
05 Feb - 14:28:33 10° WSW 14:42:35 55° NW 14:52:52 10° NE daylight
05 Feb - 16:41:47 10° WNW 16:49:15 19° NNW 16:55:11 10° NNE daylight
05 Feb - 21:01:35 10° N 21:04:16 13° NNE 21:06:41 10° NE night (unlit)
05 Feb - 23:04:06 10° NW 23:08:50 89° NE 23:13:17 10° SE night (unlit)
06 Feb - 09:48:46 10° SSE 09:55:26 14° SE 10:02:05 10° ESE daylight
06 Feb - 11:48:04 10° SSW 12:02:30 52° SE 12:15:01 10° ENE daylight
06 Feb - 13:54:29 10° WSW 14:09:08 63° NW 14:20:11 10° NE daylight
06 Feb - 16:06:52 10° WNW 16:15:54 23° NNW 16:22:57 10° NNE daylight
06 Feb - 20:28:49 10° N 20:31:20 13° NNE 20:33:37 10° NE visible
06 Feb - 22:31:21 10° NW 22:36:19 68° NE 22:40:42 10° ESE night (unlit)
07 Feb - 09:18:18 10° SSE 09:21:49 11° SE 09:25:23 10° ESE daylight
07 Feb - 11:14:55 10° SSW 11:28:53 46° SE 11:41:37 10° ENE daylight
07 Feb - 13:20:32 10° WSW 13:35:37 71° NW 13:47:25 10° NE daylight
07 Feb - 15:32:04 10° W 15:42:31 27° NNW 15:50:35 10° NNE daylight
07 Feb - 17:48:42 10° NNW 17:50:33 11° N 17:52:17 10° N visible
07 Feb - 19:55:51 10° N 19:58:21 12° NNE 20:00:37 10° NE visible
07 Feb - 21:58:33 10° NW 22:03:45 53° NE 22:08:06 10° ESE night (unlit)
